Houston Hull, TX

1:37 PM CDT on October 23, 2019 (GMT -0500)
Sugar Land Municipal-Hull

Weather History for KSGR - August, 2019

Change the Weather History Date:

Saturday, August 31, 2019

  Actual Average Record
Temperature  
Mean Temperature 84 °F -  
Max Temperature 95 °F 91 °F 102 °F (1954)
Min Temperature 75 °F 72 °F 67 °F (1950)
Cooling Degree Days 19    
Growing Degree Days 34 (Base 50)    
Moisture  
Dew Point 76 °F    
Average Humidity 83    
Maximum Humidity 100    
Minimum Humidity 50    
Precipitation  
Precipitation 0.43 in - - ()
Sea Level Pressure  
Sea Level Pressure 29.99 in    
Wind  
Wind Speed 3 mph ()    
Max Wind Speed 9 mph    
Max Gust Speed 22 mph    
Visibility 9.0 miles    
Events Rain , Thunderstorm    
Averages and records for this station are not official NWS values.
T = Trace of Precipitation, MM = Missing Value Source: Averaged Metar Reports

Daily Weather History Graph

Daily Weather History Graph

Search for Another Location

Airport or City:

Astronomy

Aug. 31, 2019 Rise Set
Actual Time 6:59 AM CDT 7:46 PM CDT
Civil Twilight 6:35 AM CDT 8:10 PM CDT
Nautical Twilight 6:06 AM CDT 8:39 PM CDT
Astronomical Twilight 5:37 AM CDT 9:08 PM CDT
Moon 8:14 AM CDT (8/31) 9:05 PM CDT (8/31)
Length of Visible Light 13h 35m
Length of Day
12h 46m
New Moon, 3% of the Moon is Illuminated
Aug 31
New Moon
Sep 5
First Quarter
Sep 13
Full
Sep 21
Last Quarter
Sep 28
New

Hourly Weather History & Observations

Time (CDT) Temp. Heat Index Dew Point Humidity Pressure Visibility Wind Dir Wind Speed Gust Speed Precip Events Conditions
12:53 AM 80.1 °F 85.4 °F 75.9 °F 87% 30.00 in 10.0 mi SSE 3.5 mph - N/A   Clear
1:53 AM 75.9 °F - 75.9 °F 100% 30.01 in 10.0 mi Calm Calm - N/A   Clear
2:53 AM 75.9 °F - 75.9 °F 100% 30.00 in 10.0 mi Calm Calm - N/A   Clear
3:53 AM 75.9 °F - 75.9 °F 100% 30.00 in 10.0 mi Calm Calm - N/A   Clear
4:53 AM 75.9 °F - 75.9 °F 100% 30.00 in 10.0 mi Calm Calm - N/A   Clear
5:53 AM 75.0 °F - 75.0 °F 100% 30.00 in 8.0 mi North 3.5 mph - N/A   Clear
6:53 AM 75.0 °F - 75.0 °F 100% 30.00 in 4.0 mi Calm Calm - N/A   Clear
7:53 AM 80.1 °F 86.4 °F 78.1 °F 94% 30.02 in 9.0 mi North 3.5 mph - N/A   Clear
8:53 AM 84.0 °F 96.0 °F 79.0 °F 85% 30.02 in 10.0 mi NNE 4.6 mph - N/A   Clear
9:53 AM 86.0 °F 98.3 °F 78.1 °F 77% 30.02 in 10.0 mi NNE 6.9 mph - N/A   Partly Cloudy
10:19 AM 88.0 °F 101.3 °F 78.1 °F 72% 30.02 in 10.0 mi ESE 5.8 mph - N/A   Mostly Cloudy
10:28 AM 88.0 °F 100.2 °F 77.0 °F 70% 30.02 in 10.0 mi Variable 5.8 mph - N/A   Partly Cloudy
10:53 AM 89.1 °F 101.4 °F 77.0 °F 67% 30.03 in 10.0 mi ENE 5.8 mph - N/A   Clear
11:53 AM 91.0 °F 102.9 °F 75.9 °F 61% 30.03 in 10.0 mi Calm Calm - N/A   Partly Cloudy
12:53 PM 93.0 °F 104.6 °F 75.0 °F 56% 30.01 in 10.0 mi East 5.8 mph - N/A   Mostly Cloudy
1:53 PM 93.0 °F 101.9 °F 73.0 °F 52% 29.99 in 10.0 mi Variable 3.5 mph - N/A   Mostly Cloudy
2:53 PM 93.9 °F 103.4 °F 73.0 °F 51% 29.96 in 10.0 mi SE 6.9 mph - N/A   Scattered Clouds
3:17 PM 93.0 °F 100.7 °F 72.0 °F 50% 29.96 in 10.0 mi East 4.6 mph - N/A Thunderstorm Mostly Cloudy
3:32 PM 90.0 °F 99.0 °F 73.9 °F 59% 29.96 in 10.0 mi SE 9.2 mph - 0.00 in Rain , Thunderstorm Light Thunderstorms and Rain
3:53 PM 81.0 °F 86.2 °F 73.9 °F 79% 29.98 in 1.5 mi ENE 4.6 mph 21.9 mph 0.33 in Rain , Thunderstorm Heavy Thunderstorms and Rain
3:57 PM 81.0 °F 86.7 °F 75.0 °F 82% 29.98 in 3.0 mi NE 3.5 mph - 0.01 in Rain , Thunderstorm Heavy Thunderstorms and Rain
4:49 PM 78.8 °F - 77.0 °F 94% 29.96 in 10.0 mi WSW 6.9 mph - 0.06 in   Partly Cloudy
4:50 PM 79.0 °F - 77.0 °F 94% 29.96 in 10.0 mi WSW 6.9 mph - 0.06 in   Partly Cloudy
5:53 PM 81.0 °F 88.6 °F 78.1 °F 91% 29.95 in 10.0 mi NW 3.5 mph - 0.04 in   Mostly Cloudy
6:53 PM 79.0 °F - 75.9 °F 90% 29.95 in 10.0 mi WNW 3.5 mph - N/A   Clear
7:53 PM 79.0 °F - 77.0 °F 94% 29.97 in 10.0 mi Calm Calm - N/A   Clear
8:53 PM 78.1 °F - 77.0 °F 96% 29.97 in 10.0 mi WSW 3.5 mph - N/A   Clear
9:53 PM 77.0 °F - 77.0 °F 100% 29.99 in 8.0 mi Calm Calm - N/A   Clear
10:53 PM 78.1 °F - 75.9 °F 93% 29.99 in 10.0 mi SSE 3.5 mph - N/A   Clear
11:53 PM 75.9 °F - 75.9 °F 100% 30.00 in 8.0 mi Calm Calm - N/A   Clear